Regional Weather Roundup
Issued by NWS

Home | Current Version | Previous Version | Graphics & Text | Print | Product List | Glossary On
Versions: 1 2 3 4 5 6 7 8 9 10 11 12 13 14 15 16 17 18 19 20 21 22 23 24 25 26 27 28 29 30 31 32 33 34 35 36 37 38 39 40 41 42 43 44 45 46 47 48 49 50
000
ASUS43 KFSD 251502
RWRSD

WEATHER ROUNDUP FOR SOUTH DAKOTA
NATIONAL WEATHER SERVICE SIOUX FALLS SD
1000 AM CDT FRI JUL 25 2014

NOTE: "FAIR" INDICATES FEW OR NO CLOUDS BELOW 12,000 FEET WITH NO
SIGNIFICANT WEATHER AND/OR OBSTRUCTIONS TO VISIBILITY.


SDZ001>005-009-010-012>017-251600-
NORTHWEST AND NORTH CENTRAL SOUTH DAKOTA

CITY           SKY/WX    TMP DP  RH WIND       PRES   REMARKS
BUFFALO          N/A     69  42  37 N12       29.92F
FAITH            N/A     70  45  40 N16G25    29.93R
MOBRIDGE       MOSUNNY   72  66  81 NW15      29.81S
$$

SDZ012>016-024>037-041>051-057-063-072>074-251600-
SOUTHWEST AND SOUTH CENTRAL SOUTH DAKOTA

CITY           SKY/WX    TMP DP  RH WIND       PRES   REMARKS
RAPID CTY ARPT SUNNY     70  41  34 N14       30.01R
PIERRE         SUNNY     77  67  71 NW20      29.82S
CUSTER         SUNNY     68  48  48 E6        30.11S
ELLSWORTH AFB  SUNNY     71  39  31 N15       30.01R
PHILIP         SUNNY     77  46  33 NW21G26   29.92R
PINE RIDGE     SUNNY     71  46  40 N14       30.01R
WINNER         FAIR      79  65  62 N18G28    29.83R
$$

SDZ004>011-016>023-039-040-251600-
NORTHEAST SOUTH DAKOTA

CITY           SKY/WX    TMP DP  RH WIND       PRES   REMARKS
ABERDEEN       MOSUNNY   73  67  81 N10       29.75S
WATERTOWN      SUNNY     73  66  78 SW8       29.77R
SISSETON         N/A     69  67  93 S7        29.74F
$$

SDZ017-020-022-023-036>040-048>070-251600-
SOUTHEAST SOUTH DAKOTA

CITY           SKY/WX    TMP DP  RH WIND       PRES   REMARKS
SIOUX FALLS    MOSUNNY   72  64  76 S15       29.76S
HURON          SUNNY     74  65  73 SW8       29.76R
CHAMBERLAIN    SUNNY     77  66  68 NW9       29.79S
MITCHELL       SUNNY     74  66  76 SE9       29.76S
YANKTON        SUNNY     73  64  73 SE12      29.75S
$$

ABBREVIATIONS USED IN REMARKS
   TC - TEMPERATURE IN CELSIUS
  WCI - WIND CHILL INDEX
   HX - HEAT INDEX
  VSB - VISIBILITY



USA.gov is the U.S. government's official web portal to all federal, state and local government web resources and services.